User: anonymous   Login
Location: Tierra del Sol
(32.6128°N, 116.3319°W)
Time: 20:33:35
(UTC-08:00)
Language:

Gurwin Techsat 1B - Orbit

View from above orbital plane
View from above orbital plane
View from above satellite
View from above satellite

Ground track
Ground track

The orbit data is extracted from the following two-line orbital elements,

1 25397U 98043D   18021.77436935 -.00000000  00000-0  18840-4 0  9992
2 25397  98.6356 324.7541 0002409  86.2796 273.8658 14.23638271 14892
Epoch (UTC): 21 January 2018 18:35:05
Eccentricity: 0.0002409
inclination: 98.6356°
perigee height: 811 km
apogee height: 815 km
right ascension of ascending node: 324.7541°
argument of perigee: 86.2796°
revolutions per day: 14.23638271
mean anomaly at epoch: 273.8658°
orbit number at epoch: 1489

The dashed part of the orbit path shows where the satellite is in the earth's shadow,  

DLR